Location: Sunnyvale
(37.3814°N, 122.0645°W)
Time: 16:19:55
(UTC-08:00)

BlueWalker 3 - Pass Details

Date: 23 December 2025
Orbit: 452 x 463 km, 53.2° (Epoch: 13 January)

Event Time Altitude Azimuth Distance (km) Brightness Sun altitude
Exits shadow 05:54:00 40° 287° (WNW) 685 2.1 -16.5°
Maximum altitude 05:54:40 46° 321° (NW) 621 2.0 -16.4°
Drops below altitude 10° 05:58:08 10° 36° (NE) 1,593 4.7 -15.7°
Sets 06:00:21 0° 43° (NE) 2,472 5.8 -15.3°
